Theta_e
313 312 310 309 311 310 306 310 317 317 316 317 316 317 322 326 326 324 320 319 322 326 325 323 324 324 321 321 321 321 321 321 320 320 321 321 321 322 319 319 321 320 319 319 318 318 319 317 316 318 317 316 315 315 317 318 319 319 320 320 320 320 319 318 318 318 317 318 319 319 319 318 317 317 317 317 318 319 321 322 322 321 321 320 319 323 322
313 312 311 309 310 312 308 307 314 317 317 317 316 318 325 328 325 323 320 319 323 326 324 322 323 323 322 321 321 321 321 322 321 320 321 322 322 323 321 320 321 320 318 319 317 316 319 319 316 315 317 316 315 317 318 318 318 317 318 318 319 321 321 318 318 319 318 318 319 320 320 318 316 316 317 317 317 318 320 320 320 321 321 320 320 323 322
313 312 313 311 308 311 311 307 309 315 318 317 316 319 326 329 323 322 321 320 322 325 324 323 322 322 324 322 321 321 319 319 320 320 319 321 322 323 320 318 319 320 319 320 318 315 318 320 317 316 317 317 316 317 318 317 315 315 316 317 317 320 320 318 317 318 319 319 319 320 319 317 316 317 317 317 317 318 319 319 319 320 320 321 321 321 321
313 312 313 312 309 309 312 309 307 311 317 317 316 318 324 328 325 322 322 321 322 323 324 324 323 323 323 323 323 323 320 317 318 319 320 320 321 321 321 320 321 320 320 321 319 316 316 319 319 318 318 318 316 315 317 317 314 314 317 318 318 319 320 319 317 317 317 317 317 318 317 316 316 316 316 316 317 318 318 318 319 319 319 320 320 319 319
313 313 312 313 311 308 310 312 308 307 314 318 316 317 322 326 326 324 324 323 322 322 323 323 324 324 323 323 323 324 322 319 318 319 320 321 320 321 321 321 322 322 321 321 319 317 318 319 318 318 317 318 317 316 318 317 315 315 317 318 318 319 320 320 318 316 316 316 316 317 316 316 316 315 315 316 316 317 318 318 318 318 318 319 319 317 317
314 313 312 313 313 309 308 312 310 306 311 316 317 320 326 326 325 326 326 326 323 321 322 325 324 324 324 323 324 325 324 322 321 319 319 319 321 322 321 320 322 321 321 322 320 319 320 319 318 318 318 318 317 317 318 318 317 316 317 317 317 317 319 319 318 316 316 316 316 316 316 316 316 316 315 316 316 317 317 317 317 317 317 318 317 316 317
316 313 312 312 313 310 307 311 312 307 306 312 317 325 330 326 325 325 323 325 328 324 324 326 323 323 324 322 323 326 324 323 323 320 319 320 321 321 321 321 321 319 320 323 323 322 323 322 320 319 319 318 317 318 317 316 317 318 317 317 317 316 317 318 317 315 315 316 316 316 316 316 316 316 316 315 315 315 316 316 317 316 316 317 316 316 316
317 314 312 312 313 312 307 308 313 308 304 312 320 327 330 328 328 329 323 322 326 325 324 323 322 323 322 320 322 326 325 324 321 319 322 323 321 320 321 321 320 319 320 323 324 322 322 323 322 320 320 319 317 318 317 315 316 318 318 317 317 315 316 317 317 315 316 318 318 317 317 316 316 316 315 315 315 315 316 316 316 316 316 316 316 316 316
318 315 313 312 313 312 308 307 311 309 308 317 326 328 328 327 326 326 325 324 323 323 323 322 322 323 321 320 323 324 324 325 322 320 322 323 321 321 321 320 318 319 320 322 324 321 319 321 321 319 320 319 317 317 317 314 315 317 318 317 317 316 316 316 317 315 316 319 319 317 316 316 316 316 316 316 316 316 316 316 315 315 316 316 316 317 316
318 316 313 312 312 313 309 306 309 310 309 317 329 330 326 326 327 323 323 326 324 322 323 321 322 324 323 322 323 322 324 325 321 319 318 319 320 321 320 320 320 321 323 324 323 320 317 319 319 318 318 318 316 316 316 315 314 314 315 316 317 318 316 315 316 314 314 318 319 317 316 316 317 319 318 317 316 316 315 315 316 316 316 316 316 316 316
318 316 313 312 312 313 310 306 308 311 309 308 319 325 322 322 328 328 324 325 325 323 323 321 322 325 326 324 322 321 323 323 320 320 319 318 320 320 319 321 323 324 324 321 319 316 316 317 317 317 317 316 317 317 316 316 316 314 315 315 316 318 316 315 316 314 313 316 318 315 315 317 319 320 318 317 316 316 315 315 315 315 316 315 315 316 316
318 317 315 313 312 312 311 306 305 310 311 304 308 318 319 318 324 330 328 325 324 323 322 322 324 327 327 325 322 320 322 321 320 322 322 319 319 319 319 321 323 322 320 317 316 315 316 317 316 317 317 316 317 317 317 317 317 315 316 316 315 315 316 315 315 314 313 314 315 314 316 320 320 319 317 316 316 316 315 316 316 315 315 315 315 315 316
318 318 317 314 312 312 311 307 304 308 311 308 305 311 315 315 320 329 331 328 325 324 322 323 326 328 326 324 322 320 320 321 321 322 322 321 319 318 319 320 321 320 317 315 317 318 319 320 320 319 319 318 318 318 317 318 319 318 317 317 314 314 315 315 315 314 314 313 313 314 317 321 321 318 317 316 315 316 316 316 315 315 315 315 315 315 316
318 319 319 316 313 312 311 307 305 305 310 311 306 305 308 312 318 326 330 329 329 327 325 324 326 327 325 324 322 321 320 321 321 321 321 322 321 319 319 320 319 318 316 316 318 319 320 321 319 317 318 319 318 318 318 318 319 318 317 317 316 314 315 316 315 314 313 313 313 313 315 319 320 319 318 316 315 314 315 314 314 314 315 316 315 314 315
318 319 320 317 313 313 311 307 304 304 309 311 308 308 309 307 311 320 325 329 330 328 325 324 325 326 327 324 322 321 321 321 321 320 320 321 321 320 319 319 318 316 316 317 319 321 320 319 317 315 316 317 316 317 317 317 318 318 317 316 317 316 315 315 315 314 313 313 314 314 313 316 319 320 318 316 315 314 314 314 314 314 315 315 314 314 314
318 319 319 316 313 312 310 307 304 305 308 309 310 314 315 307 304 312 320 325 329 327 324 325 325 325 326 324 324 322 321 321 320 319 320 320 321 320 320 319 317 316 316 317 320 321 319 316 315 314 314 316 316 315 315 315 316 318 318 318 318 317 316 315 315 315 314 314 315 315 313 315 319 320 317 315 315 314 314 315 315 315 316 315 314 314 314
319 319 319 315 312 312 310 306 304 305 308 310 310 314 315 307 302 306 312 321 326 325 323 324 325 326 324 323 324 323 321 322 321 319 320 321 320 320 320 318 318 316 316 318 319 319 318 316 315 314 315 317 316 314 314 314 315 317 318 319 319 319 318 317 316 316 315 314 314 314 315 317 319 319 317 315 314 314 314 316 315 315 316 315 314 314 314
319 319 318 314 312 312 309 306 304 305 309 311 309 311 311 307 303 304 310 320 325 322 323 323 322 324 325 323 324 323 321 322 322 320 320 321 321 320 319 319 319 317 317 318 318 318 318 317 316 315 315 316 316 315 314 314 314 315 316 317 317 319 318 317 316 315 314 314 314 313 315 318 319 317 315 315 314 313 314 316 316 315 315 315 314 314 313
319 319 317 313 311 311 308 305 304 305 308 310 311 314 314 310 305 303 309 320 323 319 321 323 321 322 323 323 324 323 321 322 322 321 320 320 321 321 320 319 319 318 317 318 317 318 318 317 317 317 315 316 317 317 317 316 315 315 315 315 314 315 315 315 314 314 314 314 314 312 315 318 319 317 315 315 315 314 315 316 315 315 315 314 313 313 313
319 319 316 312 311 310 307 305 304 304 307 309 310 314 315 311 306 303 307 317 324 322 321 322 321 319 320 321 323 323 322 322 321 320 319 319 320 321 319 318 318 317 318 318 316 317 317 316 317 317 316 317 319 318 317 316 315 315 315 315 314 314 314 313 313 315 315 314 314 314 316 318 317 315 315 315 314 315 315 315 314 314 314 313 313 313 313
318 318 316 312 311 309 306 305 304 303 306 308 309 312 315 314 310 306 304 309 317 320 320 320 319 320 320 321 322 323 323 323 321 322 322 321 320 319 319 319 318 317 318 318 317 317 317 316 317 317 317 317 318 318 316 315 315 316 316 316 315 315 314 313 313 315 314 313 314 315 317 318 317 316 315 315 314 314 314 314 314 314 314 313 313 313 313
318 318 315 311 310 308 304 304 304 303 305 308 308 312 317 319 315 309 305 304 308 312 313 313 315 318 319 319 320 322 323 322 321 323 324 323 321 320 319 320 320 319 318 319 318 317 317 318 317 317 317 317 316 316 316 315 314 316 317 317 315 315 317 317 315 314 313 313 314 315 316 317 317 317 316 315 315 314 314 313 313 313 313 313 312 313 313
318 318 315 312 310 307 304 303 303 302 304 307 308 311 317 319 315 308 305 307 309 311 311 311 313 314 313 313 314 316 319 321 320 321 323 323 323 321 320 320 321 320 320 320 320 320 319 319 319 318 318 318 316 316 317 315 314 316 317 316 316 317 318 317 314 313 314 314 315 315 315 315 315 315 315 314 314 314 313 313 313 313 313 313 313 313 313
318 318 315 312 310 307 304 302 302 302 303 306 309 310 312 314 311 307 310 316 317 315 314 313 313 313 312 312 312 313 315 318 318 319 320 321 322 321 320 320 321 321 321 321 320 320 317 316 317 317 317 318 315 314 315 315 315 316 316 315 315 316 317 316 315 315 315 315 315 315 315 315 315 315 314 313 313 313 313 312 313 313 313 313 313 313 313
318 317 315 312 310 307 304 302 301 301 302 305 309 309 310 313 312 308 310 317 318 316 315 315 313 313 314 315 316 315 315 316 317 317 317 318 319 319 320 321 321 321 322 321 319 318 315 314 314 314 315 316 315 314 315 315 315 317 316 314 315 316 316 316 315 315 314 314 315 315 314 314 315 314 314 314 313 313 313 313 313 313 313 313 313 312 312
317 316 315 312 310 308 304 301 300 301 301 305 309 309 310 314 313 308 309 314 316 315 314 314 314 314 315 315 315 315 316 316 316 317 317 316 316 317 319 321 321 320 320 319 318 317 315 313 314 313 314 316 317 316 316 315 316 317 316 316 317 317 315 315 314 313 313 314 315 315 315 314 314 313 313 314 313 313 313 314 314 313 313 313 312 312 312
316 316 315 312 310 308 304 301 300 301 302 306 310 310 310 310 309 307 310 315 318 318 315 313 315 316 315 315 314 314 316 317 316 316 317 316 316 316 317 319 319 318 317 317 316 316 315 314 315 315 314 316 318 318 317 316 315 316 316 316 317 316 315 315 314 313 314 314 314 315 314 314 314 313 313 313 313 313 313 313 313 313 313 312 312 312 312
317 317 314 311 310 308 305 301 301 302 305 308 310 309 308 307 306 306 307 308 313 318 318 316 317 317 315 315 315 314 315 316 315 315 316 316 315 316 316 317 317 316 316 316 315 315 315 314 314 314 315 316 317 317 316 315 314 314 314 314 315 315 316 316 315 314 315 314 314 314 314 314 314 313 313 313 313 312 312 312 313 313 312 312 312 312 312
317 316 314 311 309 308 305 301 301 305 308 309 309 308 308 308 307 307 306 304 305 312 315 314 313 315 315 315 315 314 314 314 314 315 316 316 315 316 316 316 317 316 316 316 316 315 315 314 313 314 316 316 315 314 314 314 313 314 315 314 315 315 316 316 316 315 315 314 314 314 314 314 314 313 313 312 312 312 312 312 312 312 312 312 312 312 311
317 315 313 311 309 308 304 300 301 307 309 308 308 310 313 314 311 310 309 305 301 307 314 314 311 312 314 315 315 314 314 314 315 315 316 316 316 316 316 316 316 316 316 317 317 315 314 313 313 314 316 317 316 314 313 313 313 314 315 315 315 316 316 316 316 315 315 314 314 313 313 313 313 312 312 312 312 312 312 312 313 313 313 312 311 311 311
316 314 312 310 308 307 304 299 301 307 308 307 310 313 315 316 314 311 309 305 301 306 313 314 311 311 312 313 316 315 313 314 315 315 316 316 316 316 315 315 316 316 316 317 317 315 313 313 313 314 315 316 315 313 312 312 313 314 315 315 316 316 315 315 315 314 315 314 314 313 313 313 312 312 312 312 312 312 312 313 313 313 312 311 311 311 310
315 313 311 309 308 307 303 299 302 307 307 307 311 314 315 315 314 312 308 303 302 307 312 312 311 310 309 311 314 315 313 314 315 315 316 317 316 316 316 315 316 317 316 316 316 314 313 313 313 313 315 315 314 313 312 312 312 313 314 315 315 315 315 314 314 314 314 314 313 313 313 312 312 312 312 312 312 313 312 312 312 312 312 311 311 311 310
315 312 310 308 307 305 301 300 303 307 307 306 308 311 312 313 313 311 306 303 305 310 313 312 311 311 311 312 314 314 313 315 315 315 316 316 315 316 316 316 316 316 315 315 314 313 313 313 313 313 315 316 315 314 313 313 313 313 314 314 314 315 314 314 314 314 313 313 313 313 312 312 312 311 311 311 312 312 312 312 311 311 311 311 311 311 310
313 311 309 307 305 303 301 302 305 307 306 306 308 310 309 310 310 307 303 303 309 313 313 311 311 311 311 312 314 314 314 315 316 316 316 316 315 316 316 316 316 316 315 315 314 313 313 313 313 313 315 316 316 315 314 314 314 314 314 314 314 314 314 314 314 313 313 313 313 312 312 312 312 311 311 311 311 311 312 312 311 311 311 311 311 310 310
312 309 307 305 303 301 302 305 306 307 307 308 310 311 310 308 307 305 302 305 311 314 311 309 309 309 309 310 311 312 314 315 316 316 316 315 316 316 316 315 315 315 315 315 314 313 313 314 314 314 314 315 315 315 315 315 315 314 314 314 314 314 314 314 314 313 313 313 313 312 312 312 312 312 311 311 311 311 311 311 311 311 311 311 311 310 310
310 307 305 303 301 302 304 307 307 308 310 311 312 311 310 308 305 302 301 304 311 314 312 309 307 307 308 308 311 313 315 315 316 316 315 315 316 316 315 315 314 314 314 315 314 314 314 314 314 314 314 314 314 314 315 315 315 315 315 314 314 314 314 314 314 313 313 313 313 313 312 312 312 312 311 311 311 311 311 311 311 311 311 311 310 310 309
307 304 304 304 303 305 308 309 308 309 311 312 312 310 308 307 305 304 304 305 308 312 314 313 310 309 308 308 312 315 315 314 315 316 315 315 316 315 315 314 314 314 314 314 314 314 315 314 314 314 314 314 314 314 315 315 315 315 315 315 314 314 314 314 314 313 312 312 313 312 312 312 312 312 311 311 311 311 311 311 311 311 311 310 310 309 309
304 304 305 306 306 307 309 310 309 309 310 311 310 309 308 307 308 309 309 308 309 310 311 312 312 313 312 311 312 314 314 313 314 315 315 316 316 315 314 314 314 313 314 313 314 314 314 314 314 314 314 315 315 315 315 314 314 314 315 314 314 314 314 313 313 313 312 312 312 312 312 312 312 312 312 311 311 311 311 311 311 310 310 310 309 308 308
304 306 307 307 307 308 309 309 309 308 308 308 309 309 309 308 308 309 309 309 309 310 310 310 310 311 312 312 313 313 313 313 314 314 314 315 315 314 314 314 313 313 313 313 314 315 314 314 314 314 314 315 315 315 315 314 314 314 314 314 314 314 313 313 313 312 312 312 312 312 312 312 312 312 311 311 311 311 311 310 310 310 310 309 308 308 307
306 307 307 307 308 310 309 308 307 306 307 308 308 309 309 308 308 308 309 309 309 309 310 310 310 310 310 311 313 313 312 312 314 314 314 314 313 313 313 313 313 313 312 312 313 314 314 314 314 313 314 315 315 315 315 314 314 314 314 313 313 313 313 313 312 312 312 312 312 312 312 312 311 311 311 311 311 310 310 310 309 309 309 308 308 307 307
306 307 307 308 309 309 308 307 307 308 308 308 307 307 307 308 308 308 308 309 309 309 309 310 311 311 310 310 312 313 312 312 313 315 315 314 313 313 313 313 313 312 312 313 313 313 313 313 313 313 313 314 314 313 313 313 313 313 313 312 312 312 312 312 312 312 312 312 312 312 311 311 311 311 310 310 310 310 309 309 309 308 308 308 307 307 307
306 307 308 308 309 308 307 308 309 309 308 307 306 306 306 307 308 308 308 308 309 310 309 309 311 312 311 310 311 313 313 312 312 314 314 313 312 312 313 313 312 311 311 312 312 312 312 312 313 313 313 313 313 312 312 312 312 313 312 312 312 312 312 312 312 312 312 312 312 311 311 311 311 310 310 310 310 309 309 309 308 308 308 307 307 307 307
307 308 308 308 308 308 308 309 309 308 306 306 306 306 306 307 307 308 308 308 308 310 311 311 311 313 313 311 312 313 314 313 312 313 313 313 312 312 312 312 312 311 312 311 311 311 311 312 312 312 312 312 312 312 312 312 312 312 312 312 311 312 312 312 312 312 312 311 311 311 310 310 310 310 310 310 309 309 309 309 308 308 308 307 307 307 306
308 308 308 308 308 308 307 308 308 307 306 306 306 306 307 308 307 307 308 309 309 310 311 312 312 313 313 312 312 313 313 313 312 312 312 312 311 311 311 311 311 312 312 311 310 310 311 311 312 312 312 312 312 312 312 312 312 312 311 311 311 311 311 311 311 311 311 311 311 310 310 310 310 310 310 310 309 309 309 309 308 307 307 307 307 307 306
308 308 307 307 308 307 306 307 307 306 306 306 306 305 307 308 308 308 309 310 310 310 311 312 312 312 312 311 311 312 312 312 311 311 311 310 310 310 310 310 310 310 310 310 310 310 311 311 312 312 312 312 312 312 312 312 312 311 311 311 311 311 311 311 311 311 311 310 310 310 310 309 309 309 309 309 309 309 309 308 308 308 307 307 306 306 306
307 307 307 307 307 306 306 306 307 306 306 307 307 307 307 309 310 310 310 310 311 311 312 311 311 311 311 311 311 310 310 310 310 309 309 309 309 310 310 310 310 309 309 310 310 310 311 312 312 311 312 312 312 312 312 311 311 311 311 311 311 311 311 311 311 310 310 310 310 309 309 309 309 309 309 309 309 309 309 308 308 307 307 307 306 306 306
306 307 306 306 306 306 305 305 307 308 308 308 309 308 308 309 311 312 311 310 310 311 311 311 311 311 312 312 310 310 310 309 309 309 308 308 309 309 309 309 309 309 309 310 310 310 310 311 311 311 312 312 312 312 312 311 311 311 311 311 310 310 310 310 310 310 310 309 309 309 309 308 308 308 308 308 308 308 308 308 308 307 307 306 306 306 306
306 307 306 306 306 306 306 306 307 308 309 310 310 310 309 310 311 312 311 311 311 311 311 311 311 312 313 312 311 310 310 309 309 309 308 308 309 309 309 309 309 309 309 309 310 310 310 311 312 313 312 312 312 312 312 311 311 311 310 310 310 310 310 310 309 309 309 309 309 308 308 308 308 308 308 308 308 308 308 308 308 307 307 306 306 306 306
306 307 306 306 306 306 307 307 307 308 309 311 311 311 311 311 311 311 311 311 311 311 312 312 311 312 312 311 310 310 310 310 309 309 309 308 309 309 309 309 310 310 309 310 310 310 311 312 313 313 312 312 312 312 311 311 311 311 310 310 310 310 309 309 309 309 308 308 308 308 308 308 308 308 308 308 308 308 307 307 307 307 307 306 306 306 306
306 306 306 306 306 306 307 307 307 307 309 310 310 311 310 310 309 310 310 310 310 311 311 311 311 311 311 310 309 309 310 310 310 309 309 309 309 309 309 310 310 310 310 310 310 311 311 312 312 312 312 311 311 311 311 311 311 310 310 310 310 309 309 309 309 308 308 308 308 308 308 308 308 308 308 307 307 307 307 307 307 307 306 306 306 306 305
305 306 306 306 306 307 308 308 308 308 309 310 311 311 310 309 309 310 309 308 309 310 310 310 309 309 309 309 309 308 309 310 310 310 310 310 309 309 309 310 310 310 310 310 311 311 311 311 311 311 311 311 311 311 311 310 310 310 310 309 309 309 309 309 308 308 308 308 308 308 308 308 307 307 307 307 307 307 307 307 307 307 306 306 306 306 305
305 306 306 306 306 307 308 308 309 308 309 310 311 310 309 309 310 310 309 309 309 309 309 309 308 308 308 309 309 309 309 309 309 309 310 310 310 310 310 310 310 311 311 311 311 310 311 310 310 310 310 310 310 310 310 310 310 310 309 309 309 308 308 308 308 308 307 307 307 307 307 307 307 307 307 307 307 307 307 307 307 306 306 306 306 306 305
Wind_Speed
15 18 18 16 13 13 11 6 3 2 2 6 8 9 10 9 2 6 3 6 4 6 4 2 1 4 5 6 6 3 1 2 2 2 4 4 3 3 3 4 5 5 5 7 6 6 5 5 5 5 7 8 8 8 10 11 10 7 5 6 8 6 4 3 6 6 1 6 8 5 7 7 4 6 8 7 7 7 6 5 5 5 7 6 2 2 1
13 17 19 17 14 13 12 8 4 3 1 4 7 8 11 9 2 6 4 6 3 6 3 2 3 4 5 5 5 4 4 5 4 4 5 5 3 3 4 4 5 4 3 5 5 6 4 3 5 5 5 6 7 7 9 10 10 8 4 5 6 5 4 3 5 6 1 3 4 2 8 8 5 6 7 7 9 10 7 5 4 3 7 9 5 3 2
11 14 18 19 15 12 12 9 5 3 2 2 6 6 10 9 1 5 5 5 4 6 6 2 4 5 3 4 4 3 4 5 5 5 6 5 5 3 2 3 4 3 3 4 4 5 4 4 3 1 4 5 5 4 4 8 10 7 4 5 6 4 5 5 5 5 5 4 3 4 7 7 5 6 8 8 10 11 8 6 4 4 7 8 5 3 2
10 12 16 18 17 13 11 10 7 3 1 2 5 6 8 8 2 5 6 5 6 3 3 3 4 5 3 3 2 1 4 4 3 3 4 6 5 4 3 3 3 3 4 4 4 5 5 5 4 3 4 5 4 1 2 6 9 5 2 4 4 4 5 5 4 6 6 5 5 6 6 6 7 7 9 8 8 9 8 5 5 6 6 4 3 3 2
9 11 14 17 18 14 10 10 8 3 1 1 4 6 8 7 3 1 3 3 4 4 2 1 3 5 3 2 2 1 3 4 2 2 3 6 5 3 3 3 3 4 5 4 4 4 5 5 4 5 5 1 2 2 2 6 5 2 3 1 3 4 4 2 3 6 6 5 6 6 5 6 8 8 8 7 7 8 7 5 5 7 6 2 3 5 4
9 10 12 15 18 16 10 8 8 4 1 2 2 5 7 5 2 3 1 1 1 2 2 2 4 4 2 0 2 2 2 3 3 2 4 5 3 2 2 2 4 5 3 3 4 3 3 4 4 4 5 4 1 3 3 3 3 1 1 2 3 5 3 3 5 7 6 4 3 3 5 6 6 7 7 6 6 6 6 6 6 6 5 4 5 6 5
9 10 11 14 18 18 12 8 7 5 2 4 1 4 5 4 3 1 2 2 4 5 5 5 4 2 0 0 2 3 2 2 2 3 3 2 1 1 1 1 4 4 3 3 3 2 3 4 3 3 4 6 5 1 1 2 3 4 4 4 4 3 2 5 7 7 7 4 2 2 4 6 5 6 6 5 5 6 6 6 6 6 7 5 6 8 3
9 9 10 13 16 18 14 8 6 5 0 3 0 4 4 6 6 3 3 3 1 3 2 1 2 3 1 1 2 2 2 2 2 2 2 2 2 2 1 3 4 3 2 4 4 5 4 3 3 4 4 4 5 4 3 3 3 4 2 2 2 1 2 5 5 7 5 3 5 0 4 6 7 7 6 5 6 6 6 6 5 6 8 6 8 9 2
9 9 9 11 15 18 16 10 6 4 3 4 2 4 4 6 6 5 6 3 3 4 3 4 4 3 4 3 3 3 3 3 3 2 2 2 2 1 2 4 4 1 1 2 3 5 3 2 3 3 3 3 4 3 5 6 6 6 3 1 1 2 4 6 6 6 2 5 4 2 2 5 8 7 5 5 5 5 5 5 5 6 8 8 8 6 2
8 8 8 10 13 17 16 11 6 4 1 4 1 6 6 5 3 5 7 3 1 3 5 5 4 1 2 4 5 4 4 4 5 2 1 2 1 2 3 3 1 3 3 1 2 2 2 4 4 3 5 5 4 4 4 5 5 5 4 4 4 2 4 6 6 6 1 4 2 2 3 6 5 3 2 2 4 5 5 5 6 5 4 6 6 3 3
8 8 8 8 11 15 16 13 7 5 3 2 1 7 7 2 1 4 6 4 3 5 5 5 5 2 5 5 4 2 3 5 5 1 1 2 2 4 5 2 2 1 3 3 1 2 4 5 5 6 6 6 6 5 3 2 2 4 3 3 4 4 5 4 4 6 4 0 1 5 6 4 1 3 5 3 3 7 6 6 7 5 4 5 5 3 3
7 8 8 8 10 13 15 13 8 5 4 0 1 5 4 2 1 5 6 5 4 5 5 4 2 4 5 5 4 2 3 4 3 1 1 3 4 4 4 1 2 1 3 2 1 2 4 5 6 6 6 6 6 6 5 4 1 3 5 4 4 4 5 4 4 5 5 4 4 6 5 2 3 5 5 5 3 3 5 7 9 9 8 7 6 4 3
7 7 8 7 9 12 14 13 9 5 4 2 0 2 3 3 2 5 7 7 4 4 5 3 6 5 5 5 5 5 4 3 4 3 1 3 4 3 1 1 1 2 2 0 1 2 5 5 5 5 6 6 7 7 8 6 4 2 3 3 3 4 4 4 4 4 5 5 5 5 3 4 7 5 4 2 1 0 3 6 7 7 5 4 4 2 2
7 8 8 7 8 11 13 12 9 5 3 2 1 1 2 3 4 3 6 5 5 8 8 3 4 4 6 6 6 5 4 4 4 3 3 4 4 4 4 2 3 3 2 1 1 3 4 3 3 5 5 5 6 6 7 7 7 6 3 1 1 4 4 4 4 3 4 5 5 6 4 4 6 3 3 3 2 3 4 5 7 6 3 3 4 2 2
8 8 8 7 7 9 12 11 8 5 3 2 1 1 2 3 5 3 3 5 7 9 8 4 2 5 8 7 7 6 5 4 3 3 5 6 4 5 5 4 4 4 2 2 3 3 3 3 4 4 3 4 4 3 2 4 6 8 5 1 0 2 3 4 4 3 4 5 5 6 6 1 2 3 5 5 3 3 3 4 7 4 3 3 2 3 3
8 8 8 7 7 8 11 10 7 5 4 3 1 2 3 3 6 6 4 5 6 4 3 8 6 2 7 6 6 6 4 4 4 4 5 6 6 6 6 6 5 4 3 4 4 3 2 3 3 4 5 6 4 2 2 4 3 8 8 5 4 3 3 3 4 4 5 5 5 6 5 3 4 7 6 4 3 2 3 4 3 3 5 4 2 5 7
8 8 8 7 6 8 10 10 6 4 4 2 1 1 2 2 4 5 5 5 7 8 7 7 4 1 4 4 6 7 6 4 4 4 3 5 9 9 8 8 5 4 5 4 4 3 3 3 4 4 6 6 3 3 3 4 3 4 7 7 7 5 4 3 4 5 5 4 5 5 3 4 6 7 6 4 4 2 5 3 1 5 7 7 6 8 9
8 8 7 6 6 8 10 9 5 3 3 2 2 2 3 2 3 4 5 4 7 10 8 2 1 4 4 3 2 5 6 6 5 5 4 5 9 11 11 9 6 5 5 4 4 4 4 5 5 5 6 4 1 2 4 4 4 4 4 4 5 5 4 4 5 5 5 5 5 4 1 4 5 6 6 4 2 1 3 2 2 4 8 7 7 9 8
8 8 7 6 6 7 10 8 5 3 3 2 1 0 2 3 2 4 5 4 6 9 6 1 3 7 6 5 5 2 4 5 5 4 4 3 6 9 10 8 5 5 6 5 4 4 4 5 4 4 6 5 2 3 4 4 4 5 4 4 4 3 2 4 5 6 5 4 5 5 1 3 3 4 5 2 1 1 1 0 1 3 6 8 7 8 9
8 7 7 6 6 7 9 8 5 3 3 2 1 0 2 3 2 4 6 3 5 10 8 2 1 6 5 5 7 4 2 5 7 6 6 4 6 9 7 6 6 5 5 5 4 4 4 5 4 4 5 5 2 2 4 6 6 5 3 2 1 1 3 5 4 3 4 4 5 5 2 1 2 3 3 2 1 5 6 5 6 5 6 9 9 7 7
8 7 7 6 5 7 9 7 5 4 3 2 1 0 2 4 4 3 7 6 5 8 6 4 3 5 4 4 6 4 2 4 3 4 7 5 7 9 4 3 5 5 4 4 4 4 3 4 4 4 5 5 2 1 4 7 5 1 1 1 2 1 1 4 3 3 4 5 4 3 2 3 6 4 2 3 4 7 8 9 10 8 7 9 11 8 7
8 7 7 6 6 7 8 7 5 4 3 2 2 4 3 6 9 5 6 7 8 11 11 9 8 8 8 8 8 6 4 5 3 1 6 5 5 8 4 3 3 5 4 4 4 4 3 4 4 4 5 6 4 4 7 7 3 1 3 3 2 1 3 2 3 2 3 6 5 5 4 1 7 7 4 5 6 6 5 6 10 10 8 8 9 8 7
8 7 7 7 6 7 8 6 5 4 4 3 3 6 5 2 6 4 3 4 7 11 15 14 11 11 12 13 13 13 11 9 7 4 3 3 2 6 8 5 3 4 3 2 3 4 3 4 5 3 3 5 5 6 7 6 5 4 3 5 5 5 6 2 2 2 4 6 5 4 4 2 3 4 5 6 8 7 5 6 10 11 8 7 8 8 8
8 8 8 8 6 7 8 7 5 5 5 4 4 6 8 6 6 5 3 4 6 9 10 10 10 11 10 9 11 12 14 14 13 11 10 8 3 3 6 4 2 2 2 3 5 6 5 5 5 4 4 5 5 6 6 6 5 4 2 2 3 6 8 4 3 2 3 3 2 3 4 2 2 5 7 7 7 7 7 7 8 6 5 4 6 8 9
9 9 9 9 7 7 8 7 6 5 5 5 5 5 5 2 7 5 2 3 5 6 6 6 8 9 6 4 5 8 11 12 12 13 16 15 10 7 5 3 2 1 1 2 3 5 6 5 4 5 5 5 5 5 5 6 4 4 2 6 3 4 5 2 4 3 5 6 6 8 10 7 4 3 4 5 7 7 6 4 3 3 3 4 7 9 9
10 9 10 9 8 7 8 8 6 5 5 5 5 6 6 2 3 3 1 3 7 7 6 7 7 6 5 6 6 7 8 9 9 9 12 12 11 10 5 1 2 4 2 1 2 5 7 6 5 5 5 3 3 4 5 5 4 2 4 4 2 5 2 5 4 5 6 6 6 8 7 4 2 5 3 5 8 6 3 3 3 4 5 6 8 9 8
10 10 10 10 9 8 8 8 7 5 5 5 5 6 7 6 4 4 4 2 4 4 5 7 5 2 3 7 8 6 7 8 8 8 8 9 9 10 9 5 4 5 5 5 5 6 8 7 5 7 7 3 1 4 7 6 5 5 6 3 3 4 5 5 5 5 4 3 6 7 5 4 5 7 6 5 8 7 4 2 3 6 7 8 8 8 7
10 10 11 10 10 10 9 8 7 5 4 5 5 5 5 5 5 7 8 7 5 4 7 10 10 7 6 7 7 7 8 9 9 9 9 9 9 9 8 8 7 7 7 7 6 7 8 6 6 9 9 3 2 5 7 6 5 5 6 6 5 5 4 4 4 5 7 8 8 6 3 5 7 8 7 6 7 9 9 6 5 7 9 8 7 8 8
10 11 11 11 12 11 9 8 6 5 4 4 4 3 2 3 4 7 8 8 7 6 9 12 11 9 6 4 5 7 8 9 10 10 10 9 10 10 8 8 9 9 9 9 9 8 8 8 10 9 4 1 2 4 5 5 6 5 7 10 9 5 3 4 7 8 9 10 10 6 5 6 7 8 8 8 9 11 11 9 8 8 7 7 7 8 9
12 12 12 12 13 12 10 7 5 4 5 5 5 2 2 2 4 7 8 9 9 6 6 7 7 7 5 3 5 7 8 8 10 11 11 10 10 10 10 10 10 10 10 10 9 8 8 10 12 8 2 0 2 3 3 5 5 5 9 10 7 5 6 6 7 7 7 8 9 7 6 8 9 10 10 10 10 9 8 7 6 4 4 6 8 9 10
13 13 13 13 14 12 10 7 4 4 6 7 5 2 3 4 5 6 5 6 10 6 4 7 8 10 10 7 7 8 9 9 10 11 11 11 10 9 10 11 10 10 11 11 10 10 9 8 8 7 6 7 6 4 5 6 6 6 8 7 5 3 5 4 5 7 9 9 8 7 8 9 10 10 11 10 8 6 5 4 4 4 6 6 7 8 9
14 14 14 14 14 12 10 7 5 6 9 10 9 7 6 5 6 4 2 3 8 6 3 6 7 7 8 7 7 8 9 10 10 10 10 11 10 10 10 10 9 9 10 9 8 9 9 8 8 9 7 10 9 4 5 6 6 8 10 9 7 7 8 6 7 11 13 10 7 7 9 9 9 10 11 9 6 4 4 5 4 6 7 7 8 10 11
15 15 14 14 13 11 9 7 5 8 11 11 9 9 9 8 8 5 2 3 5 4 4 5 4 4 3 2 3 8 10 9 10 11 10 10 10 9 9 9 8 8 9 8 7 7 8 8 8 7 5 9 8 5 5 7 9 12 14 13 11 10 10 10 12 14 14 11 9 10 11 11 11 11 12 11 8 6 7 8 7 8 10 10 11 12 12
16 15 14 13 11 9 7 5 5 6 8 6 3 5 8 10 9 8 5 4 4 4 5 5 5 5 4 2 2 8 11 10 10 11 10 10 10 9 8 9 8 7 7 8 9 9 8 8 9 7 5 7 7 6 5 8 12 15 15 14 13 12 12 12 12 12 11 11 12 13 12 12 12 12 12 13 12 10 9 8 8 8 10 12 12 12 12
16 14 12 9 8 7 5 4 7 8 7 4 4 7 8 7 7 8 8 7 4 4 6 6 5 5 5 5 5 7 11 11 11 11 10 10 10 9 9 8 8 7 7 8 8 9 8 8 8 7 7 7 7 6 6 8 13 14 13 13 14 14 13 12 13 13 12 12 12 12 12 12 12 11 12 13 13 12 11 10 10 9 10 11 12 12 12
14 12 10 8 6 3 1 4 8 8 5 4 8 11 10 8 6 8 9 9 7 5 5 6 7 5 5 6 3 7 10 11 11 11 11 10 10 9 10 9 6 7 9 8 7 7 7 8 7 6 6 7 6 7 9 12 13 14 13 13 14 14 12 11 11 11 9 8 10 11 13 13 13 12 12 13 13 13 12 10 9 10 11 12 13 13 13
13 12 10 7 3 1 1 3 6 6 6 8 9 9 9 6 4 4 6 8 9 8 7 7 6 7 9 9 3 7 9 9 9 10 11 10 8 7 8 7 6 6 7 7 7 7 9 9 8 6 6 8 10 12 14 14 14 15 14 15 15 15 13 12 12 10 8 7 9 11 12 13 12 11 11 11 12 12 11 10 9 10 11 12 12 13 13
14 14 11 6 3 1 2 6 9 10 11 10 7 4 5 3 3 4 6 6 7 9 10 8 8 10 12 10 4 7 7 6 7 8 8 9 8 7 6 5 7 6 4 5 8 10 10 8 6 6 8 11 14 16 16 16 16 16 16 16 15 14 13 12 10 8 8 9 10 11 10 10 10 10 10 10 10 10 9 9 10 10 11 12 13 13 13
17 16 12 7 5 4 5 8 10 10 9 9 6 3 3 4 4 5 6 7 6 8 10 10 12 14 13 9 6 9 6 5 5 6 7 8 8 6 5 5 5 5 3 5 7 10 8 5 5 6 7 9 13 17 18 19 19 17 15 15 14 12 10 8 7 8 9 10 10 10 9 10 10 10 10 10 10 9 9 9 10 11 12 12 12 11 11
20 17 12 8 8 8 8 7 6 5 7 8 5 3 4 5 5 4 5 6 6 7 8 10 12 15 16 14 9 8 9 8 6 4 4 8 8 5 4 4 4 4 4 4 5 6 5 4 5 6 5 7 12 15 15 14 14 12 11 11 10 8 7 7 8 9 9 9 9 9 8 9 10 10 10 10 11 11 10 10 12 13 13 12 10 9 10
22 15 10 10 10 9 7 6 6 7 6 6 4 2 3 5 6 6 5 4 4 5 8 10 10 12 16 17 13 7 10 11 8 7 4 5 7 6 5 3 2 3 4 4 4 4 3 4 5 5 6 9 13 13 10 9 10 9 8 8 8 7 7 8 9 10 9 9 10 10 9 9 10 10 10 10 11 12 12 12 12 12 12 12 12 12 12
19 14 11 11 12 11 9 8 7 6 4 3 2 2 3 4 5 5 6 5 4 5 8 12 11 8 10 15 15 9 7 8 6 6 5 3 4 4 4 2 2 3 4 4 3 3 4 5 5 6 8 11 13 14 13 11 10 8 7 7 7 7 7 9 10 11 10 10 10 11 11 11 11 11 11 11 12 13 14 14 13 13 13 13 13 14 14
18 17 14 12 12 11 9 6 6 5 2 1 2 3 3 4 5 5 5 5 6 6 6 10 9 5 4 10 12 6 3 4 4 5 5 3 3 2 3 4 3 4 4 4 5 5 5 5 5 6 9 11 13 13 12 8 6 6 6 5 5 6 8 10 12 12 11 12 12 12 12 12 12 13 13 13 14 15 16 16 15 14 14 14 14 15 16
19 16 13 11 10 10 7 5 7 6 3 2 4 4 4 5 5 4 4 5 7 7 8 9 8 5 5 9 8 4 3 4 5 4 5 5 3 2 3 4 4 4 4 4 4 5 5 5 7 10 13 14 13 12 9 5 6 7 7 7 8 9 10 10 11 12 12 13 13 13 13 13 14 15 15 15 16 17 17 17 16 15 15 14 15 16 17
18 16 13 9 7 8 6 4 5 6 4 4 5 4 4 5 6 7 7 7 5 5 7 9 8 7 7 9 7 3 4 6 6 4 5 5 4 3 4 3 3 4 5 4 5 6 6 5 7 11 15 16 15 13 9 6 7 8 7 9 10 11 10 10 12 13 13 13 13 14 14 15 15 16 16 17 17 18 18 18 17 17 16 16 17 17 17
17 17 13 5 4 7 7 4 3 4 4 6 7 7 8 8 5 3 5 7 5 3 5 8 9 8 8 8 5 3 5 7 6 4 5 4 3 4 4 4 4 4 4 5 6 6 5 5 9 13 15 14 10 9 8 7 6 6 7 9 11 11 11 13 14 14 15 14 14 14 15 16 17 17 18 18 18 19 19 19 19 17 17 17 17 18 19
16 16 11 4 3 6 7 5 5 6 7 9 12 14 14 11 4 3 5 5 5 4 4 6 7 7 7 7 4 3 5 6 4 4 5 4 3 2 3 4 4 4 4 6 6 5 5 9 12 13 10 7 3 2 6 6 6 6 7 9 11 12 13 14 15 16 16 16 16 16 17 18 19 19 19 19 19 19 19 20 20 18 17 17 17 18 19
16 13 9 4 3 5 7 7 9 10 10 10 11 12 10 7 3 3 4 4 4 3 5 7 7 5 5 7 6 5 6 6 5 5 5 4 3 2 3 3 3 3 5 6 5 6 8 9 5 2 4 3 2 3 5 6 7 8 9 11 12 14 15 16 16 17 17 17 18 19 19 20 20 20 20 20 20 20 20 20 21 20 20 19 19 20 20
14 11 9 5 3 6 10 12 12 11 11 11 10 8 6 5 5 5 4 4 4 4 5 6 5 4 5 7 5 5 5 6 4 4 4 5 4 3 3 4 5 5 5 5 5 8 11 6 3 6 4 1 3 5 6 7 8 9 10 11 13 15 15 16 16 16 17 18 19 20 21 21 21 21 21 21 21 21 21 21 22 22 22 21 21 21 21
12 11 10 9 6 6 9 12 10 8 9 11 11 9 7 8 8 6 6 5 4 4 3 3 3 4 4 5 4 4 5 5 4 4 5 5 4 4 4 5 5 5 4 5 8 11 10 4 5 4 1 1 1 4 8 10 11 11 11 12 15 16 16 17 17 18 19 19 20 21 22 22 23 24 24 23 23 23 23 23 23 23 22 21 21 20 19
9 9 11 12 10 7 7 8 8 7 8 10 10 9 9 11 10 9 9 8 6 5 4 3 3 3 3 3 3 3 3 3 4 5 5 4 4 5 6 6 6 6 8 10 12 12 10 6 3 3 3 3 5 6 7 8 11 12 11 12 14 15 16 17 18 19 20 21 22 22 23 24 24 25 25 24 24 24 24 25 25 23 22 20 18 18 19
9 7 9 13 14 11 8 9 9 9 9 9 9 9 10 10 9 11 12 10 9 8 7 7 6 4 3 4 4 2 1 2 4 5 5 4 4 5 6 7 7 9 12 13 12 11 10 10 9 10 10 12 13 12 10 10 12 13 13 14 15 17 17 18 20 21 22 23 23 24 25 25 24 25 25 25 24 24 25 25 25 25 24 23 21 20 20
Wind_Direction
14 15 15 13 12 13 13 12 21 36 208 225 238 249 263 263 175 102 143 180 195 286 276 189 31 66 86 81 81 95 340 19 107 103 26 44 53 11 28 33 19 32 7 337 351 12 10 1 8 46 67 51 38 27 6 344 340 9 19 8 13 354 301 304 314 307 41 122 138 98 21 340 340 45 26 2 15 11 345 325 313 331 359 350 334 107 58
12 13 14 14 11 10 12 10 12 33 72 233 241 256 279 286 85 103 175 191 223 296 287 132 101 89 91 86 72 57 33 20 39 69 42 34 38 23 47 39 20 28 345 322 4 19 1 9 22 40 64 59 55 45 15 4 18 37 23 347 349 335 312 331 322 305 305 150 163 73 16 356 357 17 7 7 9 358 345 324 305 345 15 1 355 55 80
9 11 13 13 11 8 9 9 3 17 39 256 247 266 291 295 292 128 167 202 257 302 328 21 121 116 103 107 99 84 77 42 29 56 66 50 25 9 42 28 8 11 324 317 19 32 16 20 10 37 95 93 87 68 38 34 35 38 26 340 319 309 315 328 337 337 352 10 341 352 2 346 333 358 3 3 3 359 347 335 347 360 2 11 18 37 91
5 9 11 11 12 8 4 7 359 343 12 271 251 268 295 294 251 156 159 202 239 266 348 21 117 133 141 125 108 101 110 99 42 29 81 88 51 14 22 16 357 14 359 343 15 40 39 24 345 357 66 92 95 62 91 69 52 43 20 330 310 304 308 323 354 335 331 352 346 354 3 327 318 352 1 355 357 359 348 345 11 354 340 26 48 335 359
360 7 8 9 12 8 0 4 357 331 312 263 245 255 274 284 303 92 146 195 211 178 155 106 109 131 156 145 131 149 118 114 106 8 65 100 90 40 20 8 3 21 21 2 354 11 36 35 5 356 9 55 151 167 137 84 80 186 227 266 282 288 305 9 2 312 313 338 337 344 343 314 325 345 341 340 347 352 353 352 2 349 330 26 43 345 348
356 2 5 6 10 9 2 358 355 342 274 219 249 265 259 265 352 23 343 292 49 114 141 106 97 114 133 150 155 167 151 132 132 89 86 101 107 80 37 31 33 28 15 346 337 340 10 25 14 346 340 342 357 167 162 87 89 230 313 22 323 305 336 20 335 311 315 308 296 350 335 312 322 320 309 328 335 333 340 336 343 347 324 328 350 340 351
352 357 1 4 6 8 5 355 356 350 267 200 238 302 288 306 354 31 260 324 38 52 52 68 104 140 350 326 173 183 188 147 89 72 100 114 108 84 65 64 57 41 355 327 337 358 1 5 10 348 334 343 352 29 124 89 85 54 23 29 9 329 341 356 330 304 289 253 184 36 322 294 296 296 298 313 314 318 324 321 336 328 299 303 323 317 347
347 352 357 360 3 7 6 359 359 359 5 159 56 325 324 339 348 351 295 289 105 97 71 75 162 169 163 211 182 188 205 163 76 58 91 114 115 108 116 99 80 54 342 330 1 32 21 1 14 351 320 339 358 11 15 359 17 31 50 82 37 317 314 342 311 282 275 159 138 155 293 294 294 290 298 311 311 313 311 317 341 321 304 323 325 312 343
342 348 353 356 360 4 6 4 3 14 95 130 28 339 316 313 324 322 306 293 138 146 189 217 226 199 188 191 162 169 209 186 133 91 55 67 104 148 121 106 101 137 237 324 21 42 22 327 15 352 290 322 347 343 354 346 335 347 11 21 338 276 305 318 295 291 318 142 167 213 289 295 287 280 283 281 285 299 307 319 325 310 311 322 314 308 355
337 343 348 352 357 2 5 6 5 15 86 165 73 350 315 288 310 304 291 294 149 188 198 204 231 236 112 122 139 175 212 171 139 119 49 79 91 82 102 113 190 206 159 99 36 21 308 295 329 306 267 281 288 290 338 351 334 341 355 344 330 306 311 313 308 319 336 161 193 318 294 280 282 315 326 238 257 290 284 278 285 287 299 299 294 314 349
333 337 342 347 353 359 3 4 6 14 8 188 125 0 334 291 359 309 283 278 247 227 210 204 215 168 98 118 151 199 214 170 153 139 169 148 104 80 103 127 286 315 91 69 353 298 286 287 293 282 272 278 275 268 283 292 319 337 329 313 322 325 315 308 309 312 307 83 334 297 288 296 14 58 38 36 347 318 305 299 301 295 271 266 278 307 326
325 332 337 341 348 356 1 2 2 11 12 46 120 357 335 240 288 305 286 278 258 230 228 223 175 141 147 163 178 199 209 187 159 91 112 146 112 90 112 162 298 29 79 44 333 269 266 261 253 249 248 253 258 258 250 234 265 332 320 324 337 326 308 309 312 298 296 312 298 283 297 355 119 107 69 43 17 337 311 303 294 284 273 268 281 309 315
312 323 331 334 342 351 358 360 358 359 5 5 336 327 300 232 241 312 303 283 266 251 241 184 104 116 160 167 183 203 204 176 125 100 126 149 135 141 170 207 4 86 103 46 337 269 265 259 247 246 238 226 231 240 239 228 211 246 297 347 351 317 303 306 301 288 290 297 291 295 312 128 134 118 101 114 132 46 306 293 287 292 296 280 273 273 274
300 311 324 327 331 345 355 357 353 350 349 340 313 296 283 234 225 310 321 296 293 297 279 220 136 156 176 174 189 195 180 156 137 148 196 184 177 201 208 171 123 110 123 164 215 251 266 269 269 271 251 224 227 232 226 214 199 202 214 107 357 297 303 306 305 309 309 298 292 299 294 161 151 138 110 107 50 3 337 301 289 294 320 346 331 320 260
294 303 317 320 320 339 352 354 348 344 339 321 315 342 322 257 231 249 312 317 309 299 288 279 210 178 174 185 199 195 179 174 179 200 196 189 198 205 188 163 143 134 154 205 231 248 269 283 288 294 277 250 254 242 215 213 190 179 179 158 208 269 283 303 315 315 301 300 302 302 305 299 156 140 101 77 41 7 339 300 285 274 130 95 335 299 296
289 299 309 311 312 332 348 351 346 342 327 302 310 7 338 271 232 226 254 291 296 290 340 5 5 163 171 183 199 211 218 194 195 217 198 187 202 197 167 152 148 159 193 231 251 259 281 280 274 275 269 267 281 301 292 287 212 161 167 197 216 218 241 272 286 280 280 293 298 297 311 8 95 122 115 89 64 28 315 289 303 8 69 79 346 326 341
284 296 302 300 304 328 344 346 342 336 324 305 274 305 318 271 233 226 234 257 274 281 305 353 12 197 194 188 191 214 240 231 211 228 222 195 199 190 163 151 158 195 221 245 261 247 240 251 248 260 276 287 332 343 292 288 272 187 187 210 218 211 213 234 257 275 280 276 282 298 335 61 97 115 111 85 74 20 292 269 41 1 0 8 351 345 354
279 289 293 291 297 323 338 341 336 324 316 309 284 285 301 285 236 214 220 248 271 277 286 306 254 275 309 328 230 208 226 246 242 232 239 224 203 189 174 168 176 200 207 231 271 255 245 258 253 262 281 288 315 287 281 299 297 257 238 255 251 228 219 228 249 274 283 280 288 301 36 89 101 108 96 78 91 239 288 317 52 358 338 338 335 331 330
275 281 284 282 292 317 331 333 324 301 300 312 312 316 309 294 248 202 209 244 263 264 278 342 281 284 298 304 301 260 208 251 271 246 242 244 195 178 174 179 198 209 199 213 253 252 246 259 253 255 276 278 267 265 267 272 275 262 263 292 297 287 271 250 248 259 265 277 293 294 346 86 101 113 99 72 302 324 13 326 274 302 309 314 324 325 314
269 274 274 272 287 312 322 323 310 276 275 288 242 211 284 287 277 216 214 233 280 278 288 359 308 285 278 262 283 301 245 250 256 242 252 251 170 161 169 194 209 212 200 208 240 250 251 262 264 261 268 269 292 337 299 285 279 264 246 271 315 349 312 289 288 309 307 302 304 301 308 86 141 151 133 145 313 359 3 328 308 324 330 318 312 315 325
261 269 267 261 281 304 311 316 306 264 254 271 235 140 326 312 309 253 226 231 257 272 292 13 3 308 304 292 289 299 326 323 297 259 293 302 158 161 191 226 205 204 201 203 226 238 237 255 268 270 271 270 265 272 284 291 297 278 182 274 273 174 244 288 320 7 342 313 323 348 25 143 169 200 282 322 344 350 344 326 322 330 333 315 305 316 352
255 262 261 256 274 296 300 305 299 264 242 243 194 128 71 333 314 285 233 235 248 256 270 295 300 278 270 277 266 237 258 318 324 299 327 335 166 185 246 283 218 223 216 204 232 249 242 254 268 270 276 283 284 270 275 286 299 182 166 200 236 129 87 342 309 333 320 299 306 338 348 219 198 216 263 301 304 304 306 306 305 305 309 310 307 318 337
250 256 258 256 266 287 292 292 289 268 240 230 207 166 154 275 301 293 261 267 276 277 278 281 280 271 265 266 259 242 240 256 254 242 287 310 209 222 243 251 259 262 246 238 286 310 322 318 320 320 297 296 302 299 296 294 290 276 216 177 177 150 130 142 267 317 326 301 283 292 308 280 236 255 280 291 288 288 300 305 297 298 309 319 316 315 313
244 253 255 257 263 282 289 285 280 270 247 227 225 209 205 238 282 295 315 310 295 296 292 270 251 254 261 262 253 239 231 235 243 246 242 239 246 247 242 256 313 307 254 268 296 311 322 324 325 319 301 295 295 296 292 285 298 324 324 237 196 147 140 165 257 295 315 298 261 287 289 255 232 270 281 290 293 286 282 287 294 307 324 323 309 305 304
242 252 253 258 265 279 287 284 277 268 247 236 242 223 201 276 298 276 265 321 296 294 306 283 244 235 245 267 244 226 225 229 235 241 240 240 249 265 281 324 340 224 115 28 317 295 288 280 279 283 278 263 253 262 278 286 320 24 335 288 302 109 133 238 266 268 286 283 285 298 290 262 237 260 270 284 299 299 294 304 338 1 348 320 309 305 305
242 251 253 259 268 279 287 287 279 260 240 237 244 225 202 225 290 238 181 323 298 276 277 283 260 220 225 258 252 229 226 223 217 228 238 236 237 243 248 265 236 230 242 326 291 280 275 263 258 270 273 255 235 252 277 293 312 317 273 283 75 116 182 275 279 268 278 288 315 327 305 269 344 26 7 287 294 312 351 21 357 328 308 304 307 307 309
241 249 253 260 270 279 287 289 280 259 240 234 240 238 232 234 232 200 186 250 278 261 254 266 267 221 234 258 250 223 210 211 211 220 224 217 218 227 226 220 229 239 245 251 250 252 256 258 253 251 255 275 320 269 271 286 303 293 276 253 153 174 239 271 266 255 266 325 7 2 327 291 336 4 358 314 303 308 314 318 314 306 299 299 304 309 310
237 245 252 261 269 278 287 287 272 250 236 237 234 229 230 234 231 225 223 226 240 285 300 298 302 311 296 261 236 218 215 221 222 220 217 212 213 217 218 218 224 230 232 234 232 231 237 245 251 251 254 275 288 260 260 263 268 274 273 262 257 274 301 308 287 289 312 331 345 354 335 315 328 338 338 330 312 299 295 294 293 290 289 295 305 307 302
231 241 251 259 266 275 285 280 259 238 229 224 206 204 235 257 255 248 239 230 229 267 302 304 299 297 284 237 216 226 229 225 220 216 216 217 213 210 212 214 218 225 228 227 230 237 241 246 252 255 264 356 304 270 263 255 247 246 254 255 251 250 273 293 289 293 306 316 326 339 332 314 311 315 317 311 300 298 299 299 297 293 294 302 303 295 293
228 239 248 255 262 273 281 273 247 222 209 185 158 163 233 227 244 260 257 234 220 237 297 296 284 294 298 251 225 235 231 217 214 216 217 215 213 212 216 218 218 224 229 228 227 237 247 249 246 244 229 200 275 282 273 264 262 256 259 262 253 220 217 237 256 265 276 293 307 314 308 296 294 297 297 291 289 294 298 300 302 303 305 306 296 289 294
228 237 244 252 259 269 278 273 246 209 189 165 155 207 229 192 214 255 272 228 209 214 280 277 275 296 300 266 232 233 228 215 214 217 216 215 217 220 223 223 217 216 225 230 227 232 249 253 245 243 225 202 211 255 269 262 266 264 269 295 333 310 264 262 270 266 259 258 266 273 276 281 285 286 286 288 290 283 277 294 310 301 298 301 293 289 298
226 235 241 249 258 268 276 274 243 196 180 174 183 208 213 199 209 232 288 218 201 201 258 270 270 287 282 246 219 224 226 215 210 213 214 213 218 224 224 221 216 216 226 236 234 234 243 246 253 264 238 186 184 238 267 250 257 268 273 290 302 282 267 269 267 255 241 232 244 266 270 274 279 281 287 300 311 294 274 282 286 273 272 279 284 291 298
223 231 238 245 256 270 276 267 234 198 190 195 207 214 216 222 227 231 247 212 193 202 253 267 271 279 278 263 206 205 205 202 202 206 208 206 209 218 216 213 221 226 221 224 237 242 240 236 243 252 205 170 184 247 260 243 254 264 269 274 276 268 263 264 263 256 247 248 273 290 291 292 294 289 287 287 286 282 283 285 279 268 267 275 284 292 294
220 227 235 244 255 269 271 252 213 184 177 182 217 238 233 233 234 237 233 198 181 220 240 244 265 267 252 279 244 193 188 196 202 201 200 199 202 214 212 205 217 230 215 211 228 239 240 237 237 234 202 191 215 243 247 249 259 263 266 270 272 272 269 264 265 267 265 270 280 282 284 290 290 283 281 281 277 271 262 253 254 263 270 276 282 284 286
219 223 227 236 249 260 256 199 163 150 143 149 209 240 253 256 243 231 213 186 187 240 226 215 246 261 242 260 252 179 177 201 212 205 203 196 193 210 221 206 199 205 204 208 225 236 238 234 231 235 236 228 226 228 234 250 261 264 263 260 260 264 266 263 264 265 263 268 281 288 294 305 305 293 289 291 286 276 262 249 252 265 272 277 282 284 287
214 208 209 224 238 243 182 151 154 152 152 191 217 236 262 277 254 228 210 198 208 238 228 219 233 233 232 259 247 156 174 212 221 214 212 197 182 203 232 236 222 203 200 211 228 237 237 229 224 237 245 235 235 246 243 244 255 265 270 269 268 270 276 284 290 286 272 274 294 300 299 301 301 295 291 291 288 286 285 283 284 281 274 273 278 281 284
199 188 190 200 191 108 95 164 170 178 197 207 217 245 273 273 242 231 229 222 224 232 240 254 256 234 240 263 244 157 180 211 213 210 213 202 185 191 211 235 255 234 211 225 238 235 235 234 228 235 244 239 246 255 253 249 254 257 260 265 270 272 277 288 300 304 296 283 281 279 277 279 278 276 280 281 279 282 286 286 284 279 270 269 275 280 285
181 178 178 170 146 146 187 184 192 212 223 214 210 259 286 257 211 224 224 217 223 225 229 249 261 247 254 268 231 169 182 203 203 206 205 192 188 186 182 211 257 257 238 250 243 229 234 243 238 242 252 248 248 254 259 262 263 258 254 259 266 270 275 278 279 280 277 269 266 270 280 285 277 269 273 280 280 278 279 277 276 274 271 271 276 281 287
173 171 168 170 187 196 186 188 205 218 212 191 184 216 239 214 217 225 204 197 216 221 215 228 240 238 245 254 207 181 202 238 225 213 194 178 183 191 177 188 224 230 238 263 238 214 216 231 233 242 255 253 251 253 254 256 261 260 258 263 271 275 276 273 267 264 265 266 271 281 295 300 292 285 288 290 280 267 262 265 267 267 266 268 275 284 293
171 172 174 183 193 194 195 204 205 173 159 170 190 234 240 216 215 220 200 195 215 219 211 222 230 226 230 244 238 203 206 227 245 252 209 183 184 195 187 182 200 212 223 245 232 212 223 252 249 244 249 255 258 257 249 243 249 254 250 253 263 270 268 264 263 262 263 264 266 269 275 281 283 284 288 288 283 276 272 268 265 263 265 273 286 299 302
170 170 175 180 178 177 179 174 151 141 163 193 198 208 240 230 222 226 224 215 224 224 212 216 223 215 217 233 246 225 196 206 240 286 270 182 173 192 199 185 209 238 236 239 230 216 234 262 263 260 262 266 274 280 273 252 246 248 251 258 265 264 260 264 265 262 260 260 261 263 270 277 278 273 270 273 279 282 281 276 273 272 275 283 293 296 294
164 151 155 162 159 151 146 145 147 156 190 225 201 203 239 234 214 221 229 228 240 235 202 202 219 224 208 214 227 228 197 190 220 263 262 166 147 201 228 213 203 231 247 265 262 238 236 245 250 258 264 267 272 278 273 258 248 247 253 258 255 250 256 268 270 263 257 258 264 270 278 285 289 286 278 272 273 277 277 275 275 277 277 280 284 286 288
144 140 150 156 153 148 148 164 178 176 182 231 206 209 229 221 209 220 225 218 231 236 191 181 199 220 199 201 210 209 163 162 198 236 239 189 133 171 242 243 232 236 252 267 262 255 253 250 251 263 272 272 273 272 267 256 251 265 267 252 237 246 261 268 270 266 263 268 278 282 281 280 284 285 283 277 273 273 273 272 272 273 275 276 280 284 287
136 143 150 151 156 160 160 177 184 178 182 211 200 199 214 211 206 216 213 196 203 211 192 179 186 197 199 203 203 173 142 183 202 219 231 221 183 164 220 233 233 244 253 252 249 252 254 254 262 271 272 271 274 281 282 253 223 238 253 251 248 254 260 262 266 268 270 276 284 286 282 280 281 281 281 278 274 272 272 272 273 275 277 278 280 283 284
146 152 148 145 166 174 165 165 184 189 201 212 204 206 214 208 208 219 213 190 172 173 178 184 199 208 196 191 193 183 179 189 191 202 225 225 209 202 218 230 246 252 251 245 246 252 255 256 264 270 269 263 256 254 256 245 228 231 248 258 259 260 260 261 264 270 275 280 283 281 279 282 284 284 283 280 276 274 274 273 271 271 271 273 276 279 281
156 158 154 147 181 188 186 187 190 193 205 209 206 213 225 231 235 216 178 168 168 176 180 188 205 211 187 167 168 199 195 187 189 210 225 226 223 216 217 230 246 246 244 247 249 247 250 261 268 273 279 281 266 236 226 239 247 243 248 256 259 262 264 264 267 271 271 270 272 275 278 283 287 288 288 285 279 275 275 274 271 269 267 268 272 276 278
163 166 170 170 176 196 210 218 208 206 216 215 210 214 226 236 242 91 117 166 206 216 190 190 208 212 185 166 177 221 204 190 197 211 208 215 236 218 206 226 240 232 233 249 254 253 262 274 277 281 295 316 331 186 193 215 233 237 246 258 264 268 271 273 276 279 277 274 275 279 281 282 285 288 290 289 285 279 275 273 272 270 269 270 274 276 277
169 173 184 189 178 195 210 217 218 222 227 225 217 215 221 230 222 151 159 189 202 189 181 189 201 204 180 176 197 217 199 189 200 208 201 208 227 206 200 226 243 233 236 245 250 258 265 271 286 31 59 41 340 251 225 231 243 249 255 260 263 265 270 273 276 278 279 279 279 279 280 281 285 288 289 289 287 284 280 276 274 272 271 272 272 271 271
182 185 193 207 223 216 207 209 218 225 225 221 219 214 211 224 232 214 179 164 173 194 198 196 206 212 185 176 198 224 207 185 186 195 196 207 221 211 205 221 227 230 240 241 243 257 263 256 112 91 80 2 311 289 273 271 272 268 264 269 273 276 278 279 281 282 283 282 280 280 282 284 285 285 284 284 284 283 282 279 274 270 269 268 268 267 267
202 206 205 208 222 223 205 201 210 221 216 210 209 208 213 225 223 198 165 163 187 202 198 199 239 247 204 171 187 230 218 197 198 204 201 208 216 216 221 232 232 237 248 247 251 263 268 237 131 122 152 228 280 286 284 286 288 282 274 272 276 280 282 282 282 283 285 287 287 286 285 284 283 283 283 283 284 283 283 281 277 272 268 266 266 267 266
203 216 214 212 220 229 211 198 205 220 218 207 199 199 215 226 212 177 165 175 186 182 178 194 217 230 217 197 205 221 209 197 213 221 218 216 214 213 223 235 240 251 263 264 266 278 289 291 277 280 287 284 284 291 298 301 298 293 287 282 282 285 288 289 287 286 288 290 290 289 287 286 284 283 282 282 282 279 278 279 278 275 273 272 271 271 270
194 209 213 214 221 230 226 212 212 220 222 215 203 200 214 219 192 160 158 174 187 190 199 204 202 207 222 216 211 224 237 217 220 228 230 226 219 222 235 247 251 258 268 275 279 286 295 298 295 294 294 293 292 292 294 295 294 294 295 296 295 295 295 293 290 289 289 290 290 290 290 289 288 286 284 283 281 277 275 276 276 275 274 274 275 276 275